Weather History for PHKO - November, 2012

Change the Weather History Date:

Thursday, November 29, 2012

  Actual Average (PHTO) Record (PHTO)
Temperature  
Mean Temperature 74 °F 73 °F  
Max Temperature 80 °F 80 °F 88 °F (1978)
Min Temperature 69 °F 66 °F 62 °F (1999)
Degree Days  
Heating Degree Days 0 0  
Month to date heating degree days 0  
Since 1 July heating degree days 0  
Cooling Degree Days 10 8  
Month to date cooling degree days 263  
Year to date cooling degree days 2998  
Growing Degree Days 24 (Base 50)    
Moisture  
Dew Point 61 °F    
Average Humidity 64    
Maximum Humidity 71    
Minimum Humidity 56    
Precipitation  
Precipitation 0.00 in 0.48 in 11.06 in (1992)
Month to date precipitation 15.05  
Year to date precipitation 114.70  
Snow  
Snow 0.00 in - - ()
Month to date snowfall  
Since 1 July snowfall  
Since 1 September snowfall  
Snow Depth -    
Sea Level Pressure  
Sea Level Pressure 30.03 in    
Wind  
Wind Speed 5 mph (NE)    
Max Wind Speed 10 mph    
Max Gust Speed -    
Visibility 10 miles    
Events      
T = Trace of Precipitation, MM = Missing Value Source: NWS Daily Summary

Daily Weather History Graph

Daily Weather History Graph

Search for Another Location

Airport or City:

Trip Planner

Search our weather history database for the weather conditions in past years. The results will help you decide how hot, cold, wet, or windy it might be!

Date:

Astronomy

Nov. 29, 2012 Rise Set
Actual Time 6:41 AM HST 5:43 PM HST
Civil Twilight 6:17 AM HST 6:07 PM HST
Nautical Twilight 5:50 AM HST 6:34 PM HST
Astronomical Twilight 5:23 AM HST 7:01 PM HST
Moon 6:56 PM HST (11/29) 7:36 AM HST (11/29)
Length of Visible Light 11h 49m
Length of Day
11h 02m
Full, 98% of the Moon is Illuminated
Nov 29
Full
Dec 6
Last Quarter
Dec 12
New
Dec 19
First Quarter
Dec 28
Full

Hourly Weather History & Observations

Time (HST) Temp. Heat Index Dew Point Humidity Pressure Visibility Wind Dir Wind Speed Gust Speed Precip Events Conditions
12:53 AM 71.1 °F - 57.9 °F 63% 30.05 in 10.0 mi East 5.8 mph - N/A   Clear
1:53 AM 71.1 °F - 60.1 °F 68% 30.04 in 10.0 mi East 6.9 mph - N/A   Clear
2:53 AM 69.1 °F - 57.9 °F 68% 30.01 in 10.0 mi ENE 5.8 mph - N/A   Clear
3:53 AM 69.1 °F - 59.0 °F 70% 30.01 in 10.0 mi ENE 8.1 mph - N/A   Clear
4:53 AM 70.0 °F - 60.1 °F 71% 29.99 in 10.0 mi NE 5.8 mph - N/A   Clear
5:53 AM 69.1 °F - 57.9 °F 68% 30.01 in 10.0 mi NE 4.6 mph - N/A   Clear
6:53 AM 69.1 °F - 57.0 °F 65% 30.05 in 10.0 mi East 3.5 mph - N/A   Clear
7:53 AM 73.9 °F - 57.9 °F 57% 30.05 in 10.0 mi East 4.6 mph - N/A   Clear
8:53 AM 77.0 °F - 63.0 °F 62% 30.05 in 10.0 mi Calm Calm - N/A   Clear
9:53 AM 78.1 °F - 63.0 °F 60% 30.06 in 10.0 mi West 5.8 mph - N/A   Clear
10:53 AM 78.1 °F - 63.0 °F 60% 30.06 in 10.0 mi SW 6.9 mph - N/A   Clear
11:53 AM 80.1 °F 81.5 °F 63.0 °F 56% 30.04 in 10.0 mi SSW 10.4 mph - N/A   Clear
12:53 PM 80.1 °F 81.7 °F 64.0 °F 58% 30.00 in 10.0 mi WSW 9.2 mph - N/A   Clear
1:53 PM 79.0 °F - 64.0 °F 60% 29.97 in 10.0 mi West 8.1 mph - N/A   Clear
2:53 PM 78.1 °F - 64.0 °F 62% 29.99 in 10.0 mi West 5.8 mph - N/A   Clear
3:53 PM 77.0 °F - 64.0 °F 64% 29.99 in 10.0 mi West 5.8 mph - N/A   Clear
4:53 PM 77.0 °F - 63.0 °F 62% 29.99 in 10.0 mi West 3.5 mph - N/A   Clear
5:53 PM 77.0 °F - 63.0 °F 62% 30.02 in 10.0 mi WSW 3.5 mph - N/A   Clear
6:53 PM 75.9 °F - 63.0 °F 64% 30.02 in 10.0 mi WNW 3.5 mph - N/A   Clear
7:53 PM 73.9 °F - 63.0 °F 68% 30.04 in 10.0 mi Calm Calm - N/A   Clear
8:53 PM 73.0 °F - 63.0 °F 71% 30.05 in 10.0 mi ENE 4.6 mph - N/A   Clear
9:53 PM 73.0 °F - 63.0 °F 71% 30.05 in 10.0 mi East 3.5 mph - N/A   Clear
10:53 PM 72.0 °F - 61.0 °F 68% 30.06 in 10.0 mi ENE 4.6 mph - N/A   Clear
11:53 PM 72.0 °F - 61.0 °F 68% 30.06 in 10.0 mi Calm Calm - N/A   Clear